03:59:35,5AF60DCF,4,0D5B,0,0,0,1,1,0,1,0,60923,0,26568,4,0,113,2809,17,177,1,183,184,182
04:00:07,5AF611CF,4,115B,0,0,0,1,1,0,1,0,60799,0,26444,3,0,116,2809,17,177,1,183,184,182
04:00:39,5AF615CF,4,155B,0,0,0,1,1,0,1,0,60870,0,26519,4,0,122,2809,17,177,1,183,184,182
04:01:11,5AF619CF,4,195B,0,0,0,1,1,0,1,0,60869,0,26525,3,0,129,2809,17,177,1,183,184,184
04:01:43,5AF61DCF,4,1D5B,0,0,0,1,1,0,1,0,60788,0,26438,2,0,129,2809,17,177,1,183,184,184
04:02:15,5AF621CF,4,215B,0,0,0,1,1,0,1,0,60955,0,26601,3,0,115,2816,17,177,1,183,184,184
04:02:47,5AF625CF,4,255B,0,0,0,1,1,0,1,0,61420,0,27061,5,0,119,2816,17,177,1,183,184,184
04:03:19,5AF629CF,4,295B,0,0,0,1,1,0,1,0,61643,0,27279,4,0,117,2816,17,177,1,183,184,184
04:03:51,5AF62DCF,4,2D5B,0,0,0,1,1,0,1,0,61801,0,27437,7,0,124,2816,17,177,1,183,184,184
04:04:23,5AF631CF,4,315B,0,0,0,1,1,0,1,0,61505,0,27133,8,0,114,2816,17,177,1,183,184,184
04:04:55,5AF635CF,4,355B,0,0,0,1,1,0,1,0,61140,0,26766,5,0,116,2816,17,177,1,183,184,184
04:05:27,5AF639CF,4,395B,0,0,0,1,1,0,1,0,60991,0,26611,6,0,118,2816,17,177,1,183,184,184
04:05:59,5AF63DCF,4,3D5B,0,0,0,1,1,0,1,0,60947,0,26563,4,0,118,2816,17,177,1,183,184,184
04:06:31,5AF641CF,4,415B,0,0,0,1,1,0,1,0,60840,0,26461,4,0,127,2815,17,177,1,183,184,184
04:07:03,5AF645CF,4,455B,0,0,0,1,1,0,1,0,60950,0,26554,3,0,115,2815,17,177,1,183,184,184
04:07:35,5AF649CF,4,495B,0,0,0,1,1,0,1,0,60781,0,26391,1,0,116,2815,17,178,1,183,184,184
04:08:07,5AF64DCF,4,4D5B,0,0,0,1,1,0,1,0,60831,0,26441,2,0,116,2815,17,178,1,183,184,184
04:08:39,5AF651CF,4,515B,0,0,0,1,1,0,1,0,61177,0,26764,1,0,125,2815,17,178,1,183,184,184
04:09:11,5AF655CF,4,555B,0,0,0,1,1,0,1,0,61511,0,27134,1,0,129,2815,17,178,1,183,184,184
04:09:43,5AF659CF,4,595B,0,0,0,1,1,0,1,0,61665,0,27284,2,0,117,2815,17,178,1,183,184,184
04:10:15,5AF65DCF,4,5D5B,0,0,0,1,1,0,1,0,61814,0,27429,4,0,127,2815,17,178,1,183,184,184
04:10:47,5AF661CF,4,615B,0,0,0,1,1,0,1,0,61522,0,27133,5,0,123,2817,17,178,1,183,184,184
04:11:19,5AF665CF,4,655B,0,0,0,1,1,0,1,0,61159,0,26764,5,0,113,2817,17,178,1,183,184,184
04:11:51,5AF669CF,4,695B,0,0,0,1,1,0,1,0,60946,0,26544,4,0,112,2817,17,178,1,183,184,184
04:12:23,5AF66DCF,4,6D5B,0,0,0,1,1,0,1,0,60956,0,26549,5,0,114,2817,17,178,1,183,184,184
04:12:55,5AF671CF,4,715B,0,0,0,1,1,0,1,0,60887,0,26483,11,0,126,2817,17,178,1,183,184,184
04:13:27,5AF675CF,4,755B,0,0,0,1,1,0,1,0,60937,0,26530,4,0,116,2817,17,178,1,183,184,184
04:13:59,5AF679CF,4,795B,0,0,0,1,1,0,1,0,60877,0,26463,4,0,128,2817,17,178,1,183,184,184
04:14:31,5AF67DCF,4,7D5B,0,0,0,1,1,0,1,0,60848,0,26428,3,0,116,2817,17,178,1,183,184,184
04:15:03,5AF681CF,4,815B,0,0,0,1,1,0,1,0,61196,0,26773,2,0,117,2817,17,178,1,183,184,184
04:15:35,5AF685CF,4,855B,0,0,0,1,1,0,1,0,61493,0,27077,2,0,117,2817,17,178,1,183,184,184
04:16:07,5AF689CF,4,895B,0,0,0,1,1,0,1,0,61674,0,27258,3,0,115,2817,17,178,1,183,184,184
04:16:39,5AF68DCF,4,8D5B,0,0,0,1,1,0,1,0,61833,0,27411,1,0,117,2817,17,178,1,183,184,184
04:17:11,5AF691CF,4,915B,0,0,0,1,1,0,1,0,61490,0,27060,0,0,112,2817,17,178,1,183,184,184
04:17:43,5AF695CF,4,955B,0,0,0,1,1,0,1,0,61129,0,26714,0,0,123,2817,17,178,1,183,184,184
04:18:15,5AF699CF,4,995B,0,0,0,1,1,0,1,0,60946,0,26524,0,0,112,2817,17,178,1,183,184,183
04:18:47,5AF69DCF,4,9D5B,0,0,0,1,1,0,1,0,60942,0,26521,2,0,113,2817,17,178,1,183,184,183
04:19:19,5AF6A1CF,4,A15B,0,0,0,1,1,0,1,0,60828,0,26404,0,0,115,2817,17,178,1,183,184,183
04:19:51,5AF6A5CF,4,A55B,0,0,0,1,1,0,1,0,60962,0,26556,1,0,121,2817,17,178,1,183,184,183
04:20:23,5AF6A9CF,4,A95B,0,0,0,1,1,0,1,0,60878,0,26473,4,0,127,2817,17,178,1,183,184,183
04:20:55,5AF6ADCF,4,AD5B,0,0,0,1,1,0,1,0,60906,0,26494,3,0,119,2817,17,178,1,183,184,183
04:21:27,5AF6B1CF,4,B15B,0,0,0,1,1,0,1,0,61295,0,26885,4,0,126,2817,17,178,1,183,184,183
04:21:59,5AF6B5CF,4,B55B,0,0,0,1,1,0,1,0,61519,0,27115,5,0,124,2817,17,178,1,183,184,183
04:22:31,5AF6B9CF,4,B95B,0,0,0,1,1,0,1,0,61672,0,27244,0,1,114,2817,17,178,1,183,184,184
04:23:03,5AF6BDCF,4,BD5B,0,0,0,1,1,0,1,0,61867,0,27464,2,0,126,2817,17,178,1,183,184,184
04:23:35,5AF6C1CF,4,C15B,0,0,0,1,1,0,1,0,61409,0,27005,1,0,113,2818,17,178,1,183,184,184
04:24:07,5AF6C5CF,4,C55B,0,0,0,1,1,0,1,0,61064,0,26659,4,0,114,2818,17,178,1,183,184,184
04:24:39,5AF6C9CF,4,C95B,0,0,0,1,1,0,1,0,60947,0,26537,3,0,113,2818,17,178,1,183,184,184
04:25:11,5AF6CDCF,4,CD5B,0,0,0,1,1,0,1,0,60908,0,26494,3,0,118,2818,17,178,1,183,184,184
04:25:43,5AF6D1CF,4,D15B,0,0,0,1,1,0,1,0,60836,0,26417,1,0,115,2818,17,178,1,183,184,184
04:26:15,5AF6D5CF,4,D55B,0,0,0,1,1,0,1,0,60942,0,26525,7,0,127,2818,17,178,1,183,184,184
04:26:47,5AF6D9CF,4,D95B,0,0,0,1,1,0,1,0,60800,0,26382,5,0,116,2818,17,178,1,183,184,184
04:27:19,5AF6DDCF,4,DD5B,0,0,0,1,1,0,1,0,61033,0,26610,6,0,127,2818,17,178,1,183,184,184
04:27:51,5AF6E1CF,4,E15B,0,0,0,1,1,0,1,0,61292,0,26871,5,0,115,2818,17,178,1,183,184,184
04:28:23,5AF6E5CF,4,E55B,0,0,0,1,1,0,1,0,61548,0,27118,5,0,113,2818,17,178,1,183,184,184
04:28:55,5AF6E9CF,4,E95B,0,0,0,1,1,0,1,0,61760,0,27329,4,0,126,2818,17,178,1,183,184,184
04:29:27,5AF6EDCF,4,ED5B,0,0,0,1,1,0,1,0,61840,0,27407,7,0,123,2818,17,178,1,183,184,184
04:29:59,5AF6F1CF,4,F15B,0,0,0,1,1,0,1,0,61368,0,26928,5,0,115,2818,17,178,1,183,184,184
04:30:31,5AF6F5CF,4,F55B,0,0,0,1,1,0,1,0,61122,0,26690,2,0,116,2818,17,178,1,183,184,184
04:31:03,5AF6F9CF,4,F95B,0,0,0,1,1,0,1,0,60935,0,26501,2,0,117,2818,17,178,1,183,184,184
04:31:35,5AF6FDCF,4,FD5B,0,0,0,1,1,0,1,0,60883,0,26446,3,0,113,2818,17,178,1,183,184,184
04:32:07,5AF701CF,4,015B,0,0,0,1,1,0,1,0,60962,0,26519,5,0,128,2819,17,178,1,183,184,184
04:32:39,5AF705CF,4,055B,0,0,0,1,1,0,1,0,60949,0,26505,5,0,120,2819,17,178,1,183,184,184
04:33:11,5AF709CF,4,095B,0,0,0,1,1,0,1,0,60911,0,26464,6,0,118,2819,17,178,1,183,184,184
04:33:43,5AF70DCF,4,0D5B,0,0,0,1,1,0,1,0,61132,0,26683,7,0,127,2819,17,178,1,183,184,184
04:34:15,5AF711CF,4,115B,0,0,0,1,1,0,1,0,61315,0,26864,5,0,114,2819,17,178,1,183,184,184
04:34:47,5AF715CF,4,155B,0,0,0,1,1,0,1,0,61624,0,27171,5,0,114,2819,17,178,1,183,184,184
04:35:19,5AF719CF,4,195B,0,0,0,1,1,0,1,0,61772,0,27317,4,0,115,2819,17,178,1,183,184,184
04:35:51,5AF71DCF,4,1D5B,0,0,0,1,1,0,1,0,61857,0,27400,4,0,116,2819,17,178,1,183,184,184
04:36:23,5AF721CF,4,215B,0,0,0,1,1,0,1,0,61366,0,26906,4,0,109,2817,17,178,1,183,184,184
04:36:55,5AF725CF,4,255B,0,0,0,1,1,0,1,0,61199,0,26740,6,0,120,2817,17,178,1,183,184,184
04:37:27,5AF729CF,4,295B,0,0,0,1,1,0,1,0,60939,0,26472,5,0,115,2817,17,178,1,183,184,184
04:37:59,5AF72DCF,4,2D5B,0,0,0,1,1,0,1,0,60887,0,26417,6,0,114,2817,17,178,1,183,184,184
04:38:31,5AF731CF,4,315B,0,0,0,1,1,0,1,0,61028,0,26558,6,0,120,2817,17,178,1,183,184,184
04:39:03,5AF735CF,4,355B,0,0,0,1,1,0,1,0,60921,0,26452,4,0,117,2817,17,178,1,183,184,184
04:39:35,5AF739CF,4,395B,0,0,0,1,1,0,1,0,60977,0,26499,4,0,118,2817,17,178,1,183,184,184
04:40:07,5AF73DCF,4,3D5B,0,0,0,1,1,0,1,0,61098,0,26623,4,0,116,2817,17,178,1,183,184,184
04:40:39,5AF741CF,4,415B,0,0,0,1,1,0,1,0,61430,0,26951,5,0,115,2817,17,178,1,183,184,184
04:41:11,5AF745CF,4,455B,0,0,0,1,1,0,1,0,61733,0,27252,7,0,123,2817,17,178,1,183,184,184
06:11:48,5AF9ED6F,1,ED5B,0,0,0,1,1,0,1,0,61432,0,26443,1,0,113,2823,17,179,1,183,184,184
06:12:20,5AF9F16F,1,F15B,0,0,0,1,1,0,1,0,61418,0,26434,3,0,127,2823,17,179,1,183,184,184
06:12:52,5AF9F56F,1,F55B,0,0,0,1,1,0,1,0,61414,0,26427,1,0,116,2823,17,179,1,183,184,184
06:13:24,5AF9F96F,1,F95B,0,0,0,1,1,0,1,0,61790,0,26798,3,0,119,2823,17,179,1,183,184,184
06:13:56,5AF9FD6F,1,FD5B,0,0,0,1,1,0,1,0,62123,0,27127,4,0,123,2823,17,179,1,183,184,184
06:14:28,5AFA016F,1,015B,0,0,0,1,1,0,1,0,62295,0,27300,5,0,122,2819,17,179,1,183,184,184
06:15:00,5AFA056F,1,055B,0,0,0,1,1,0,1,0,62431,0,27433,5,0,127,2819,17,179,1,183,184,184
06:15:32,5AFA096F,1,095B,0,0,0,1,1,0,1,0,62111,0,27110,2,0,112,2819,17,178,1,183,184,184
06:16:04,5AFA0D6F,1,0D5B,0,0,0,1,1,0,1,0,61768,0,26770,3,0,120,2819,17,178,1,183,184,184
06:16:36,5AFA116F,1,115B,0,0,0,1,1,0,1,0,61581,0,26567,1,0,114,2819,17,178,1,183,184,184
06:17:08,5AFA156F,1,155B,0,0,0,1,1,0,1,0,61562,0,26559,2,0,113,2819,17,178,1,183,184,184
06:17:40,5AFA196F,1,195B,0,0,0,1,1,0,1,0,61431,0,26425,3,0,119,2819,17,178,1,183,184,184
06:18:12,5AFA1D6F,1,1D5B,0,0,0,1,1,0,1,0,61499,0,26486,3,0,116,2819,17,178,1,183,184,184
06:18:44,5AFA216F,1,215B,0,0,0,1,1,0,1,0,61515,0,26503,4,0,121,2819,17,178,1,183,184,184
06:19:16,5AFA256F,1,255B,0,0,0,1,1,0,1,0,61525,0,26510,3,0,116,2819,17,178,1,183,184,184
06:19:48,5AFA296F,1,295B,0,0,0,1,1,0,1,0,61900,0,26882,3,0,118,2819,17,179,1,183,184,184
06:20:20,5AFA2D6F,1,2D5B,0,0,0,1,1,0,1,0,62168,0,27151,4,0,123,2819,17,179,1,183,184,184
06:20:52,5AFA316F,1,315B,0,0,0,1,1,0,1,0,62259,0,27233,3,0,113,2819,17,179,1,183,184,184
06:21:24,5AFA356F,1,355B,0,0,0,1,1,0,1,0,62397,0,27369,4,0,115,2819,17,179,1,183,184,184
06:21:56,5AFA396F,1,395B,0,0,0,1,1,0,1,0,62038,0,27013,4,0,127,2819,17,179,1,183,184,184
06:22:28,5AFA3D6F,1,3D5B,0,0,0,1,1,0,1,0,61744,0,26712,5,0,116,2819,17,179,1,183,184,184
06:23:00,5AFA416F,1,415B,0,0,0,1,1,0,1,0,61544,0,26512,4,0,115,2820,17,179,1,183,184,184
06:23:32,5AFA456F,1,455B,0,0,0,1,1,0,1,0,61572,0,26533,5,0,125,2820,17,179,1,183,184,184
06:24:04,5AFA496F,1,495B,0,0,0,1,1,0,1,0,61582,0,26542,3,0,119,2820,17,178,1,183,184,184
06:24:36,5AFA4D6F,1,4D5B,0,0,0,1,1,0,1,0,61465,0,26413,2,0,122,2820,17,178,1,183,184,184
06:25:08,5AFA516F,1,515B,0,0,0,1,1,0,1,0,61588,0,26556,1,0,129,2820,17,178,1,183,184,184
06:25:40,5AFA556F,1,555B,0,0,0,1,1,0,1,0,61660,0,26624,1,0,116,2820,17,178,1,183,184,184
06:26:12,5AFA596F,1,595B,0,0,0,1,1,0,1,0,62084,0,27046,3,0,128,2820,17,178,1,183,184,184
06:26:44,5AFA5D6F,1,5D5B,0,0,0,1,1,0,1,0,62208,0,27164,2,0,113,2820,17,178,1,183,184,184
06:27:16,5AFA616F,1,615B,0,0,0,1,1,0,1,0,62366,0,27321,5,0,115,2820,17,178,1,183,184,184
06:27:48,5AFA656F,1,655B,0,0,0,1,1,0,1,0,62424,0,27387,2,0,126,2820,17,178,1,183,184,184
06:28:20,5AFA696F,1,695B,0,0,0,1,1,0,1,0,61972,0,26934,1,0,126,2820,17,179,1,183,184,184
06:28:52,5AFA6D6F,1,6D5B,0,0,0,1,1,0,1,0,61710,0,26669,1,0,117,2820,17,179,1,183,184,184
06:29:24,5AFA716F,1,715B,0,0,0,1,1,0,1,0,61605,0,26561,1,0,116,2820,17,179,1,183,184,184
06:29:56,5AFA756F,1,755B,0,0,0,1,1,0,1,0,61455,0,26402,0,0,114,2820,17,179,1,183,184,184
06:30:28,5AFA796F,1,795B,0,0,0,1,1,0,1,0,61555,0,26495,0,0,114,2820,17,179,1,183,184,184
06:31:00,5AFA7D6F,1,7D5B,0,0,0,1,1,0,1,0,61424,0,26359,0,1,116,2820,17,179,1,183,184,184
06:31:32,5AFA816F,1,815B,0,0,0,1,1,0,1,0,61618,0,26576,3,0,121,2820,17,179,1,183,184,184
06:32:04,5AFA856F,1,855B,0,0,0,1,1,0,1,0,61860,0,26812,3,0,115,2820,17,179,1,183,184,184
06:32:36,5AFA896F,1,895B,0,0,0,1,1,0,1,0,62169,0,27116,3,0,127,2820,17,179,1,183,184,184
06:33:08,5AFA8D6F,1,8D5B,0,0,0,1,1,0,1,0,62340,0,27285,2,0,117,2820,17,179,1,183,184,184
06:33:40,5AFA916F,1,915B,0,0,0,1,1,0,1,0,62477,0,27409,2,0,115,2820,17,179,1,183,184,184
06:34:12,5AFA956F,1,955B,0,0,0,1,1,0,1,0,62130,0,27072,3,0,111,2820,17,179,1,183,184,184
06:34:44,5AFA996F,1,995B,0,0,0,1,1,0,1,0,61719,0,26665,3,0,112,2820,17,179,1,183,184,184
06:35:16,5AFA9D6F,1,9D5B,0,0,0,1,1,0,1,0,61586,0,26533,2,0,120,2820,17,179,1,183,184,184
06:35:48,5AFAA16F,1,A15B,0,1,0,1,1,0,1,0,26574,0,26473,0,0,117,2823,17,179,1,183,184,184
06:36:20,5AFAA56F,1,A55B,0,0,0,1,1,0,1,0,61549,0,26494,3,0,127,2823,17,179,1,183,184,184
06:36:52,5AFAA96F,1,A95B,0,0,0,1,1,0,1,0,61494,0,26441,2,0,115,2823,17,179,1,183,184,184
06:37:24,5AFAAD6F,1,AD5B,0,0,0,1,1,0,1,0,61452,0,26392,2,0,116,2823,17,179,1,183,184,184
06:37:56,5AFAB16F,1,B15B,0,0,0,1,1,0,1,0,61684,0,26626,3,0,127,2823,17,179,1,183,184,184
06:38:28,5AFAB56F,1,B55B,0,0,0,1,1,0,1,0,61936,0,26877,2,0,115,2823,17,179,1,183,184,184
06:39:00,5AFAB96F,1,B95B,0,0,0,1,1,0,1,0,62207,0,27145,3,0,114,2823,17,179,1,183,184,183
06:39:32,5AFABD6F,1,BD5B,0,0,0,1,1,0,1,0,62421,0,27356,3,0,125,2823,17,179,1,183,184,183
06:40:04,5AFAC16F,1,C15B,0,0,0,1,1,0,1,0,62489,0,27419,5,0,126,2819,17,179,1,183,184,183
06:40:36,5AFAC56F,1,C55B,0,0,0,1,1,0,1,0,62095,0,27019,4,0,125,2819,17,179,1,183,184,183
06:41:08,5AFAC96F,1,C95B,0,0,0,1,1,0,1,0,61755,0,26676,5,0,115,2819,17,179,1,183,184,183
06:41:40,5AFACD6F,1,CD5B,0,0,0,1,1,0,1,0,61582,0,26501,5,0,114,2819,17,179,1,183,184,183
06:42:12,5AFAD16F,1,D15B,0,0,0,1,1,0,1,0,61481,0,26393,3,0,114,2819,17,179,1,183,184,183
06:42:44,5AFAD56F,1,D55B,0,0,0,1,1,0,1,0,61610,0,26525,7,0,118,2819,17,179,1,183,184,183
06:43:16,5AFAD96F,1,D95B,0,0,0,1,1,0,1,0,61591,0,26506,3,0,126,2819,17,179,1,183,184,184
06:43:48,5AFADD6F,1,DD5B,0,0,0,1,1,0,1,0,61640,0,26550,5,0,127,2819,17,179,1,183,184,184
06:44:20,5AFAE16F,1,E15B,0,0,0,1,1,0,1,0,61802,0,26708,5,0,127,2819,17,179,1,183,184,184
06:44:52,5AFAE56F,1,E55B,0,0,0,1,1,0,1,0,62168,0,27068,4,0,121,2819,17,179,1,183,184,184
06:45:24,5AFAE96F,1,E95B,0,0,0,1,1,0,1,0,62380,0,27276,6,0,119,2819,17,179,1,183,184,184
06:45:56,5AFAED6F,1,ED5B,0,0,0,1,1,0,1,0,62480,0,27371,5,0,122,2819,17,179,1,183,184,184
06:46:28,5AFAF16F,1,F15B,0,0,0,1,1,0,1,0,62437,0,27329,6,0,114,2819,17,179,1,183,184,184
06:47:00,5AFAF56F,1,F55B,0,0,0,1,1,0,1,0,61994,0,26879,7,0,122,2819,17,179,1,183,184,184
06:47:32,5AFAF96F,1,F95B,0,0,0,1,1,0,1,0,61774,0,26655,2,0,118,2819,17,179,1,183,184,184
06:48:04,5AFAFD6F,1,FD5B,0,0,0,1,1,0,1,0,61688,0,26566,4,0,111,2819,17,179,1,183,184,184
06:48:36,5AFB016F,1,015B,0,0,0,1,1,0,1,0,61642,0,26518,5,0,128,2820,17,179,1,183,184,184
06:49:08,5AFB056F,1,055B,0,0,0,1,1,0,1,0,61622,0,26496,4,0,114,2820,17,179,1,183,184,184
06:49:40,5AFB096F,1,095B,0,0,0,1,1,0,1,0,61643,0,26515,2,0,120,2820,17,178,1,183,184,184
06:50:12,5AFB0D6F,1,0D5B,0,0,0,1,1,0,1,0,61528,0,26401,3,0,116,2820,17,178,1,183,184,184
06:50:44,5AFB116F,1,115B,0,0,0,1,1,0,1,0,61979,0,26854,4,0,125,2820,17,178,1,183,184,184
06:51:16,5AFB156F,1,155B,0,0,0,1,1,0,1,0,62256,0,27120,3,0,118,2820,17,178,1,183,184,184
06:51:48,5AFB196F,1,195B,0,0,0,1,1,0,1,0,62423,0,27288,4,0,118,2820,17,178,1,183,184,184
06:52:20,5AFB1D6F,1,1D5B,0,0,0,1,1,0,1,0,62569,0,27437,5,0,124,2820,17,178,1,183,184,184
06:52:52,5AFB216F,1,215B,0,0,0,1,1,0,1,0,62256,0,27112,3,0,115,2820,17,178,1,183,184,184
06:53:24,5AFB256F,1,255B,0,0,0,1,1,0,1,0,61898,0,26757,4,0,124,2820,17,178,1,183,184,184
06:53:56,5AFB296F,1,295B,0,0,0,1,1,0,1,0,61680,0,26526,1,0,114,2820,17,179,1,183,184,184
06:54:28,5AFB2D6F,1,2D5B,0,0,0,1,1,0,1,0,61690,0,26541,4,0,124,2820,17,179,1,183,184,184
06:55:00,5AFB316F,1,315B,0,0,0,1,1,0,1,0,61601,0,26450,4,0,120,2820,17,179,1,183,184,184
06:55:32,5AFB356F,1,355B,0,0,0,1,1,0,1,0,61592,0,26433,3,0,114,2820,17,179,1,183,184,184
06:56:04,5AFB396F,1,395B,0,0,0,1,1,0,1,0,61605,0,26440,1,0,116,2820,17,179,1,183,184,183
06:56:36,5AFB3D6F,1,3D5B,0,0,0,1,1,0,1,0,61770,0,26613,3,0,124,2820,17,179,1,183,184,183
06:57:08,5AFB416F,1,415B,0,0,0,1,1,0,1,0,62097,0,26945,3,0,127,2820,17,179,1,183,184,183
06:57:40,5AFB456F,1,455B,0,0,0,1,1,0,1,0,62303,0,27147,3,0,125,2820,17,179,1,183,184,183
06:58:12,5AFB496F,1,495B,0,0,0,1,1,0,1,0,62417,0,27257,2,0,113,2820,17,178,1,183,184,183
06:58:48,5AFB4DEF,5,4D5B,0,0,0,1,1,0,1,0,62530,0,27371,4,0,114,2820,17,178,1,183,184,183
06:59:16,5AFB516F,1,515B,0,0,0,1,1,0,1,0,62136,0,26973,2,0,114,2820,17,178,1,183,184,183
06:59:48,5AFB556F,1,555B,0,0,0,1,1,0,1,0,61862,0,26700,3,0,116,2820,17,178,1,183,184,183
07:00:20,5AFB596F,1,595B,0,0,0,1,1,0,1,0,61678,0,26511,1,0,114,2820,17,178,1,183,184,184
07:00:52,5AFB5D6F,1,5D5B,0,0,0,1,1,0,1,0,61549,0,26382,2,0,113,2820,17,178,1,183,184,184
07:01:24,5AFB616F,1,615B,0,0,0,1,1,0,1,0,61629,0,26458,2,0,116,2819,17,178,1,183,184,184
07:01:56,5AFB656F,1,655B,0,0,0,1,1,0,1,0,61636,0,26462,1,0,117,2819,17,178,1,183,184,184
07:02:28,5AFB696F,1,695B,0,0,0,1,1,0,1,0,61565,0,26393,2,0,116,2819,17,178,1,183,184,184
07:03:00,5AFB6D6F,1,6D5B,0,0,0,1,1,0,1,0,61825,0,26653,1,0,117,2819,17,178,1,183,184,184
07:03:39,5AFB724F,8,715B,0,0,0,1,1,0,1,0,62128,0,26959,2,0,114,2819,17,178,1,183,184,184
07:04:11,5AFB764F,8,755B,0,0,0,1,1,0,1,0,62440,0,27264,2,0,120,2819,17,178,1,183,184,184
07:04:43,5AFB7A4F,8,795B,0,0,0,1,1,0,1,0,62524,0,27353,2,0,118,2819,17,178,1,183,184,184
07:05:15,5AFB7E4F,8,7D5B,0,0,0,1,1,0,1,0,62563,0,27391,3,0,120,2819,17,178,1,183,184,184
07:05:47,5AFB824F,8,815B,0,0,0,1,1,0,1,0,62046,0,26862,3,0,111,2819,17,178,1,183,184,184
07:06:19,5AFB864F,8,855B,0,0,0,1,1,0,1,0,61886,0,26704,3,0,114,2819,17,178,1,183,184,184
07:06:51,5AFB8A4F,8,895B,0,0,0,1,1,0,1,0,61775,0,26594,5,0,123,2819,17,179,1,183,184,184
07:07:23,5AFB8E4F,8,8D5B,0,0,0,1,1,0,1,0,61566,0,26376,1,0,115,2819,17,179,1,183,184,184
07:07:55,5AFB924F,8,915B,0,0,0,1,1,0,1,0,61738,0,26549,3,0,120,2819,17,179,1,183,184,184
07:08:27,5AFB964F,8,955B,0,0,0,1,1,0,1,0,61590,0,26398,1,0,116,2819,17,179,1,183,184,184
07:08:59,5AFB9A4F,8,995B,0,0,0,1,1,0,1,0,61656,0,26443,0,0,128,2819,17,179,1,183,184,184
07:09:31,5AFB9E4F,8,9D5B,0,1,0,1,1,0,1,0,26854,0,26741,0,0,118,2819,17,179,1,183,184,184
07:10:03,5AFBA24F,8,A15B,0,0,0,1,1,0,1,0,62266,0,27081,0,0,119,2820,17,179,1,183,184,184
07:10:35,5AFBA64F,8,A55B,0,0,0,1,1,0,1,0,62489,0,27301,1,0,126,2820,17,179,1,183,184,184
07:11:07,5AFBAA4F,8,A95B,0,1,0,1,1,0,1,0,27554,0,27440,0,0,121,2820,17,179,1,183,184,184
07:11:39,5AFBAE4F,8,AD5B,0,1,0,1,1,0,1,0,27234,0,27119,0,0,111,2820,17,179,1,183,184,184
07:12:11,5AFBB24F,8,B15B,0,0,0,1,1,0,1,0,61935,0,26763,1,0,126,2820,17,179,1,183,184,184
07:12:43,5AFBB64F,8,B55B,0,0,0,1,1,0,1,0,61789,0,26608,0,0,124,2820,17,179,1,183,184,184
07:13:15,5AFBBA4F,8,B95B,0,1,0,1,1,0,1,0,26674,0,26569,0,0,116,2820,17,179,1,183,184,183
07:13:47,5AFBBE4F,8,BD5B,0,1,0,1,1,0,1,0,26614,0,26500,1,0,128,2820,17,179,1,183,184,183
07:14:19,5AFBC24F,8,C15B,0,0,0,1,1,0,1,0,61614,0,26419,0,0,116,2820,17,179,1,183,184,183
07:14:51,5AFBC64F,8,C55B,0,1,0,1,1,0,1,0,26534,0,26425,0,0,116,2820,17,179,1,183,184,183
07:15:23,5AFBCA4F,8,C95B,0,0,0,1,1,0,1,0,61669,0,26506,0,0,126,2820,17,179,1,183,184,183
07:15:55,5AFBCE4F,8,CD5B,0,0,0,1,1,0,1,0,62017,0,26869,2,0,124,2820,17,179,1,183,184,183
07:16:27,5AFBD24F,8,D15B,0,1,0,1,1,0,1,0,27194,0,27089,0,0,115,2820,17,179,1,183,184,183
07:16:59,5AFBD64F,8,D55B,0,1,0,1,1,0,1,0,27394,0,27277,0,0,120,2820,17,179,1,183,184,183
07:17:31,5AFBDA4F,8,D95B,0,0,0,1,1,0,1,0,62512,0,27376,0,0,115,2820,17,179,1,183,184,184
07:18:03,5AFBDE4F,8,DD5B,0,0,0,1,1,0,1,0,62142,0,27002,1,0,115,2820,17,179,1,183,184,184
07:18:35,5AFBE24F,8,E15B,0,0,0,1,1,0,1,0,61794,0,26653,2,0,114,2820,17,179,1,183,184,184
07:19:07,5AFBE64F,8,E55B,0,0,0,1,1,0,1,0,61612,0,26472,1,0,113,2820,17,179,1,183,184,184
07:19:39,5AFBEA4F,8,E95B,0,0,0,1,1,0,1,0,61698,0,26553,4,0,121,2820,17,179,1,183,184,184
07:20:11,5AFBEE4F,8,ED5B,0,0,0,1,1,0,1,0,61632,0,26487,4,0,117,2820,17,179,1,183,184,184
07:20:43,5AFBF24F,8,F15B,0,0,0,1,1,0,1,0,61600,0,26449,1,0,119,2820,17,179,1,183,184,184
07:21:15,5AFBF64F,8,F55B,0,0,0,1,1,0,1,0,61558,0,26396,0,0,116,2820,17,179,1,183,184,184
07:21:47,5AFBFA4F,8,F95B,0,0,0,1,1,0,1,0,61807,0,26664,3,0,119,2820,17,179,1,183,184,184
07:22:19,5AFBFE4F,8,FD5B,0,0,0,1,1,0,1,0,62081,0,26934,2,0,116,2820,17,179,1,183,184,184
07:22:51,5AFC024F,8,015B,0,0,0,1,1,0,1,0,62284,0,27131,2,0,115,2819,17,179,1,183,184,184
07:23:23,5AFC064F,8,055B,0,0,0,1,1,0,1,0,62433,0,27276,2,0,113,2819,17,179,1,183,184,184
07:23:55,5AFC0A4F,8,095B,0,0,0,1,1,0,1,0,62546,0,27392,5,0,115,2819,17,179,1,183,184,184
07:24:27,5AFC0E4F,8,0D5B,0,0,0,1,1,0,1,0,62151,0,26993,5,0,119,2819,17,179,1,183,184,184
07:24:59,5AFC124F,8,115B,0,0,0,1,1,0,1,0,61921,0,26758,4,0,125,2819,17,179,1,183,184,184
07:25:31,5AFC164F,8,155B,0,0,0,1,1,0,1,0,61743,0,26574,4,0,116,2819,17,179,1,183,184,184
07:26:03,5AFC1A4F,8,195B,0,0,0,1,1,0,1,0,61700,0,26536,3,0,123,2819,17,179,1,183,184,184
07:26:35,5AFC1E4F,8,1D5B,0,0,0,1,1,0,1,0,61661,0,26489,1,0,114,2819,17,179,1,183,184,184
07:27:07,5AFC224F,8,215B,0,0,0,1,1,0,1,0,61558,0,26387,2,0,115,2819,17,179,1,183,184,184
07:27:39,5AFC264F,8,255B,0,0,0,1,1,0,1,0,61626,0,26429,1,0,116,2819,17,179,1,183,184,184
07:28:11,5AFC2A4F,8,295B,0,0,0,1,1,0,1,0,61780,0,26611,2,0,115,2819,17,179,1,183,184,184
07:28:43,5AFC2E4F,8,2D5B,0,0,0,1,1,0,1,0,62203,0,27029,2,0,122,2819,17,179,1,183,184,184
07:29:15,5AFC324F,8,315B,0,0,0,1,1,0,1,0,62440,0,27268,2,0,129,2819,17,179,1,183,184,184
07:29:47,5AFC364F,8,355B,0,0,0,1,1,0,1,0,62585,0,27411,1,0,125,2819,17,179,1,183,184,184
07:30:19,5AFC3A4F,8,395B,0,0,0,1,1,0,1,0,62542,0,27362,2,0,125,2819,17,179,1,183,184,184
07:30:51,5AFC3E4F,8,3D5B,0,1,0,1,1,0,1,0,26894,0,26789,0,0,111,2819,17,179,1,183,184,184
07:31:23,5AFC424F,8,415B,0,1,0,1,1,0,1,0,26734,0,26620,0,0,123,2824,17,179,1,183,184,184
07:31:55,5AFC464F,8,455B,0,0,0,1,1,0,1,0,61757,0,26577,2,0,118,2824,17,179,1,183,184,184
07:32:27,5AFC4A4F,8,495B,0,0,0,1,1,0,1,0,61607,0,26423,0,0,121,2824,17,179,1,183,184,184
07:32:59,5AFC4E4F,8,4D5B,0,0,0,1,1,0,1,0,61706,0,26511,0,0,114,2824,17,179,1,183,184,184
07:33:31,5AFC524F,8,515B,0,0,0,1,1,0,1,0,61660,0,26470,1,0,125,2824,17,179,1,183,184,184
07:34:03,5AFC564F,8,555B,0,1,0,1,1,0,1,0,26514,0,26407,0,0,116,2824,17,179,1,183,184,184
07:34:35,5AFC5A4F,8,595B,0,0,0,1,1,0,1,0,62041,0,26839,0,0,115,2824,17,179,1,183,184,184
07:35:07,5AFC5E4F,8,5D5B,0,0,0,1,1,0,1,0,62265,0,27087,2,0,116,2824,17,179,1,183,184,184
07:35:39,5AFC624F,8,615B,0,1,0,1,1,0,1,0,27414,0,27296,0,0,116,2823,17,179,1,183,184,184
07:36:11,5AFC664F,8,655B,0,1,0,1,1,0,1,0,27534,0,27421,0,0,117,2823,17,179,1,183,184,184
07:36:43,5AFC6A4F,8,695B,0,0,0,1,1,0,1,0,62262,0,27066,0,0,111,2823,17,178,1,183,184,184
07:37:15,5AFC6E4F,8,6D5B,0,1,0,1,1,0,1,0,26794,0,26683,0,0,114,2823,17,178,1,183,184,184
07:37:47,5AFC724F,8,715B,0,0,0,1,1,0,1,0,61730,0,26541,0,1,118,2823,17,178,1,183,184,184
07:38:19,5AFC764F,8,755B,0,1,0,1,1,0,1,0,26654,0,26543,0,0,113,2823,17,178,1,183,184,184
07:38:51,5AFC7A4F,8,795B,0,1,0,1,1,0,1,0,26594,0,26474,1,0,118,2823,17,178,1,183,184,184
07:39:23,5AFC7E4F,8,7D5B,0,1,0,1,1,0,1,0,26574,0,26470,0,0,118,2823,17,178,1,183,184,184
07:39:55,5AFC824F,8,815B,0,1,0,1,1,0,1,0,26614,0,26497,0,0,124,2823,17,178,1,183,184,184
07:40:27,5AFC864F,8,855B,0,1,0,1,1,0,1,0,26654,0,26536,0,0,116,2823,17,178,1,183,184,184
07:40:59,5AFC8A4F,8,895B,0,1,0,1,1,0,1,0,27034,0,26922,0,0,124,2823,17,179,1,183,184,184
07:41:31,5AFC8E4F,8,8D5B,0,1,0,1,1,0,1,0,27274,0,27160,0,0,121,2823,17,179,1,183,184,184
07:42:03,5AFC924F,8,915B,0,1,0,1,1,0,1,0,27394,0,27289,0,0,115,2823,17,179,1,183,184,184
07:42:35,5AFC964F,8,955B,0,0,0,1,1,0,1,0,62671,0,27432,0,0,125,2823,17,179,1,183,184,184
07:43:07,5AFC9A4F,8,995B,0,0,0,1,1,0,1,0,62131,0,26961,0,0,114,2823,17,179,1,183,184,184
07:43:39,5AFC9E4F,8,9D5B,0,1,0,1,1,0,1,0,26814,0,26705,0,0,122,2823,17,179,1,183,184,184
07:44:11,5AFCA24F,8,A15B,0,0,0,1,1,0,1,0,61677,0,26484,1,0,114,2819,17,179,1,183,184,184
07:44:43,5AFCA64F,8,A55B,0,0,0,1,1,0,1,0,61605,0,26459,0,0,115,2819,17,179,1,183,184,184
07:45:15,5AFCAA4F,8,A95B,0,0,0,1,1,0,1,0,61640,0,26489,0,0,121,2819,17,179,1,183,184,184
07:45:47,5AFCAE4F,8,AD5B,0,1,0,1,1,0,1,0,26594,0,26483,0,0,118,2819,17,179,1,183,184,184
07:46:19,5AFCB24F,8,B15B,0,1,0,1,1,0,1,0,26654,0,26553,0,0,128,2819,17,179,1,184,184,184
07:46:51,5AFCB64F,8,B55B,0,1,0,1,1,0,1,0,26754,0,26639,0,0,114,2819,17,179,1,184,184,184
07:47:23,5AFCBA4F,8,B95B,0,1,0,1,1,0,1,0,27014,0,26902,0,0,115,2819,17,179,1,184,184,183
07:47:55,5AFCBE4F,8,BD5B,0,1,0,1,1,0,1,0,27254,0,27141,0,0,114,2819,17,179,1,184,184,183
07:48:27,5AFCC24F,8,C15B,0,1,0,1,1,0,1,0,27434,0,27327,0,0,124,2824,17,179,1,184,184,183
07:48:59,5AFCC64F,8,C55B,0,0,0,1,1,0,1,0,62508,0,27413,1,0,127,2824,17,179,1,184,184,183
07:49:31,5AFCCA4F,8,C95B,0,1,0,1,1,0,1,0,27094,0,26986,0,0,125,2824,17,179,1,184,184,183
07:50:03,5AFCCE4F,8,CD5B,0,0,0,1,1,0,1,0,61813,0,26718,1,0,124,2824,17,179,1,184,184,183
07:50:35,5AFCD24F,8,D15B,0,1,0,1,1,0,1,0,26594,0,26479,0,0,114,2824,17,179,1,184,184,183
07:51:07,5AFCD64F,8,D55B,0,0,0,1,1,0,1,0,61597,0,26499,2,0,118,2824,17,179,1,184,184,183